This is the latest recevied weather packets stored in our database for station/object Seibranz. If no packets are shown the sender has not sent any weather packets the latest 10 day(s).
| Time | Temp. | Humidity | Pressure | Rain* | Wind** | Luminosity | Snow |
|---|---|---|---|---|---|---|---|
| 1787990530 | 16.67° C | 88% | 1016.7 hPa | 0.25 mm | - | - | - |
| 1787988730 | 15.56° C | 91% | 1016.7 hPa | 0.25 mm | - | - | - |
| 1787986930 | 15° C | 92% | 1016.7 hPa | 0.25 mm | - | - | - |
| 1787985130 | 14.44° C | 93% | 1016.9 hPa | 0.25 mm | - | - | - |
| 1787983330 | 13.33° C | 94% | 1016.6 hPa | 0.25 mm | - | - | - |
| 1787981530 | 12.78° C | 95% | 1016.5 hPa | 0.25 mm | - | - | - |
| 1787979730 | 11.67° C | 95% | 1016.2 hPa | 0.25 mm | - | - | - |
| 1787977930 | 11.67° C | 94% | 1016 hPa | 0.25 mm | - | - | - |
| 1787976129 | 11.67° C | 94% | 1015.7 hPa | 0.25 mm | - | - | - |
| 1787974329 | 11.67° C | 94% | 1015.9 hPa | 0.25 mm | - | - | - |
| 1787972530 | 11.67° C | 94% | 1015.9 hPa | 0.25 mm | - | - | - |
| 1787970729 | 11.67° C | 95% | 1015.8 hPa | 0.25 mm | - | - | - |
| 1787968930 | 12.22° C | 95% | 1015.7 hPa | 0.25 mm | - | - | - |
| 1787967132 | 12.22° C | 94% | 1015.7 hPa | 0.25 mm | - | - | - |
| 1787965329 | 12.22° C | 94% | 1015.9 hPa | 0 mm | - | - | - |
| 1787963531 | 12.22° C | 94% | 1016 hPa | 0 mm | - | - | - |
| 1787961732 | 12.22° C | 94% | 1016 hPa | 0 mm | - | - | - |
| 1787959940 | 12.22° C | 94% | 1016 hPa | 0 mm | - | - | - |
| 1787958131 | 12.78° C | 93% | 1016.1 hPa | 0 mm | - | - | - |
| 1787956331 | 12.78° C | 94% | 1015.8 hPa | 0 mm | - | - | - |
| 1787954531 | 12.78° C | 94% | 1015.7 hPa | 0 mm | - | - | - |
| 1787952731 | 13.33° C | 93% | 1015.8 hPa | 7.11 mm | - | - | - |
| 1787950930 | 13.89° C | 93% | 1016.1 hPa | 7.11 mm | - | - | - |
| 1787949131 | 14.44° C | 93% | 1015.1 hPa | 6.1 mm | - | - | - |
| 1787947331 | 15° C | 92% | 1015.7 hPa | 4.83 mm | - | - | - |
* Rain since midnight (hover to see other rain measurements)
** Current wind speed in m/s (hover to see current wind gust speed)